Location: Puketoi
(40.5833°S, 176.0167°E)
Time: 13:28:37
(UTC+00:00)

Cosmos 2263 Rocket - Pass Details

Date: 08 February 2023
Orbit: 825 x 847 km, 71.0° (Epoch: 22 March)

Event Time Altitude Azimuth Distance (km) Brightness Sun altitude
Rises 16:38:39 0° 204° (SSW) 3,444 5.5 -10.1°
Reaches altitude 10° 16:41:08 10° 204° (SSW) 2,502 4.7 -9.7°
Maximum altitude 16:46:54 87° 293° (WNW) 862 2.2 -8.7°
Drops below altitude 10° 16:52:36 10° 20° (NNE) 2,467 4.6 -7.8°
Sets 16:55:01 0° 20° (NNE) 3,392 5.3 -7.4°
